Location: Zapote
(9.9191°N, 84.0597°W)
Time: 12:49:49
(UTC-06:00)

Vanguard 2 Rocket - Visible Passes

Search period start: 04 March 2021 00:00
Search period end: 14 March 2021 00:00
Orbit: 554 x 3325 km, 32.9° (Epoch: 03 March)

Date Brightness Start Highest point End Pass type
(mag) Time Alt. Az. Time Alt. Az. Time Alt. Az.
04 Mar 9.2 03:35:47 15° N 03:35:47 15° N 03:39:52 10° NNE visible
05 Mar 9.4 04:47:04 10° NNW 04:51:30 15° N 04:57:17 10° NE visible
06 Mar 9.3 03:49:04 11° N 03:50:27 12° N 03:53:20 10° NNE visible
07 Mar 9.5 05:01:43 10° NNW 05:06:39 16° NNE 05:13:13 10° NE visible
08 Mar 9.4 04:03:42 10° N 04:05:38 11° NNE 04:07:50 10° NNE visible
09 Mar 9.5 05:15:40 10° NNW 05:21:31 20° NNE 05:29:45 10° ENE visible
10 Mar 9.4 04:17:45 10° N 04:20:41 12° NNE 04:24:12 10° NE visible
11 Mar 9.3 19:33:33 10° S 19:35:50 12° SSE 19:35:50 12° SSE visible
12 Mar 9.3 04:31:09 10° N 04:35:27 16° NNE 04:41:07 10° ENE visible
12 Mar 9.6 20:44:49 10° SW 20:45:36 12° SSW 20:45:36 12° SSW visible
13 Mar 8.8 19:44:28 10° SSW 19:49:35 22° S 19:49:35 22° S visible
